Temp
48 41 39 46 49 51 51 49 48 54 60 51 50 52 57 63 57 59 62 62 61 61 64 56 53 53 53 55 58 59 57 56 54 52 52 52 52 54 53 54 53 52 52 51
40 34 47 52 52 49 47 44 45 52 54 47 49 50 57 60 61 58 60 61 60 60 57 53 52 52 52 53 56 57 56 54 54 54 54 56 55 55 55 53 51 51 50 50
38 44 48 46 46 42 44 41 44 44 48 47 44 43 49 56 60 62 62 62 61 59 53 51 50 50 51 51 53 54 54 53 53 54 53 51 51 50 49 49 50 50 49 49
40 49 47 43 42 43 35 48 47 43 40 33 46 32 50 58 57 57 59 59 60 59 55 53 49 49 50 51 52 53 52 52 53 52 50 50 49 49 52 52 52 50 48 47
35 40 40 36 40 45 38 46 43 42 37 36 37 29 45 55 53 55 53 56 54 55 53 52 50 49 51 50 50 51 51 50 50 49 50 49 48 50 51 49 47 47 47 46
38 46 45 42 44 45 44 35 33 33 32 24 33 31 39 48 47 55 56 51 49 51 51 52 51 49 49 49 49 50 48 47 48 47 47 46 46 47 46 46 45 45 46 45
32 33 36 42 36 34 34 31 25 22 22 24 39 31 39 52 54 53 55 47 46 49 49 50 47 46 47 46 47 47 46 45 46 45 45 44 44 44 44 44 44 44 43 43
29 26 32 36 36 32 32 34 29 21 23 29 33 28 38 43 37 35 40 42 46 46 48 46 46 46 46 46 46 46 45 44 44 44 43 44 43 43 43 43 43 43 41 40
30 30 39 36 43 41 31 29 38 26 24 26 28 35 45 43 36 35 35 44 44 45 45 45 45 46 45 44 44 45 44 43 43 42 42 42 41 40 41 41 41 40 40 39
35 28 37 34 36 34 33 42 27 29 21 21 29 32 36 35 34 35 33 41 43 44 44 43 42 42 42 42 41 41 40 34 35 39 40 39 39 38 36 34 34 34 33 34
32 31 29 31 30 31 31 30 32 33 30 26 27 34 33 34 35 34 34 41 42 41 40 39 39 39 32 31 30 31 31 31 31 32 35 36 36 35 33 32 32 32 32 32
33 31 24 28 30 33 40 34 36 30 26 29 29 33 30 30 31 34 36 39 40 39 38 38 36 31 30 29 29 28 28 27 29 29 31 32 32 32 31 31 31 31 31 32
33 29 22 22 27 30 29 32 34 35 31 28 27 33 30 29 29 33 35 36 35 35 34 32 30 29 29 28 27 26 27 27 27 27 27 28 29 30 30 30 31 31 30 31
35 30 28 25 27 32 27 31 32 32 28 31 31 33 32 30 29 30 33 33 32 32 31 30 29 28 28 27 26 25 26 26 27 25 25 25 27 28 29 30 30 30 30 29
32 28 28 25 26 27 28 30 30 28 31 29 34 32 33 32 32 31 33 32 31 31 30 30 29 28 27 26 25 25 25 25 25 23 23 24 26 27 26 26 26 27 28 29
32 28 26 24 24 25 25 28 30 30 32 32 25 28 32 28 30 30 31 31 30 30 30 30 30 29 26 25 25 25 25 23 24 22 22 24 23 23 23 24 24 26 26 25
30 28 25 24 23 25 23 26 28 31 33 33 29 34 32 30 30 31 31 31 31 32 31 30 29 27 25 24 26 24 24 25 24 24 25 25 25 25 25 26 26 24 24 26
30 28 29 21 22 18 23 22 24 30 31 33 33 32 33 32 31 31 32 32 32 32 31 29 27 25 25 25 23 26 28 27 26 25 25 25 25 24 25 25 25 26 28 28
30 29 23 22 22 28 28 25 26 27 28 27 30 32 30 26 27 29 29 30 33 31 28 26 24 23 23 21 23 25 24 25 25 23 23 23 23 22 23 23 24 26 26 27
29 29 27 23 22 20 25 27 27 27 25 26 24 26 28 26 27 31 25 27 25 24 23 21 21 22 22 21 24 25 24 24 23 23 23 23 23 22 21 23 24 26 26 26
25 24 23 23 22 23 27 29 30 22 23 26 23 23 26 27 26 26 25 23 23 22 21 22 22 22 21 21 21 22 22 21 22 22 23 23 23 22 23 24 24 23 24 25
22 23 23 22 20 18 29 29 26 28 28 26 25 23 26 23 24 24 23 21 21 20 22 24 24 24 24 24 23 23 22 22 21 20 19 19 19 21 23 20 21 22 22 22
23 23 23 23 23 29 30 29 29 28 28 30 29 24 26 24 24 25 23 24 24 25 25 25 25 23 22 21 21 20 20 19 17 14 14 16 18 19 20 20 21 22 23 23
28 30 26 27 30 30 30 32 30 28 30 32 31 29 29 29 27 27 27 26 25 24 23 22 21 20 19 19 19 19 18 16 11 13 16 18 18 18 20 22 23 22 23 23
26 29 26 28 31 32 32 33 33 32 28 30 30 30 30 30 28 28 26 25 25 23 22 21 20 20 19 18 18 16 16 13 12 14 17 18 20 19 19 21 21 21 23 23
28 24 24 25 30 28 32 33 32 31 31 31 29 27 28 29 28 27 25 25 23 21 20 18 18 18 18 16 15 14 11 10 9 15 19 19 17 19 19 19 20 25 23 23
MSLP
1010.57 1010.49 1008.43 1007.41 1007.39 1007.20 1006.76 1005.94 1005.24 1005.15 1005.31 1006.40 1005.70 1004.80 1004.17 1004.09 1004.82 1004.82 1004.67 1005.31 1006.16 1006.85 1007.93 1009.78 1010.88 1011.55 1011.91 1012.16 1012.28 1012.58 1013.47 1014.41 1015.18 1015.69 1016.16 1016.63 1016.87 1017.26 1017.62 1017.89 1018.33 1018.64 1018.75 1018.98
1010.22 1009.08 1007.00 1007.83 1007.66 1007.55 1007.23 1006.38 1005.33 1005.74 1005.96 1006.94 1005.95 1004.16 1003.71 1003.53 1003.11 1004.04 1004.21 1004.73 1005.58 1006.69 1007.99 1009.60 1010.51 1011.15 1011.59 1011.89 1012.15 1012.58 1013.38 1014.36 1015.01 1015.44 1015.73 1016.03 1016.48 1016.88 1017.22 1017.83 1018.32 1018.51 1018.70 1018.93
1008.12 1006.02 1007.78 1007.92 1007.75 1007.72 1006.95 1006.54 1005.92 1006.23 1006.72 1007.29 1006.99 1004.20 1003.46 1002.81 1002.76 1002.75 1003.10 1003.92 1004.95 1005.94 1007.45 1009.07 1010.20 1010.93 1011.33 1011.75 1012.20 1012.74 1013.43 1014.27 1014.85 1015.25 1015.75 1016.40 1016.90 1017.28 1017.52 1017.81 1018.07 1018.26 1018.65 1018.83
1007.73 1006.70 1007.13 1007.14 1006.93 1007.77 1007.11 1006.69 1006.72 1006.98 1007.45 1007.11 1006.98 1003.45 1002.02 1000.94 1000.80 1001.59 1002.24 1003.26 1004.01 1005.34 1007.17 1008.54 1009.64 1010.66 1011.24 1011.57 1012.28 1012.90 1013.65 1014.22 1014.78 1015.36 1015.86 1016.05 1016.24 1016.36 1016.46 1016.88 1017.44 1017.98 1018.49 1018.67
1006.81 1006.44 1006.78 1006.85 1006.17 1007.12 1006.69 1007.71 1007.39 1007.71 1007.62 1007.77 1007.16 1006.46 999.42 1001.05 1000.01 1000.72 1002.16 1002.85 1004.31 1005.43 1006.93 1008.07 1009.07 1010.11 1011.15 1011.91 1012.29 1012.96 1013.70 1014.35 1014.85 1015.40 1015.65 1015.91 1016.16 1016.32 1016.59 1017.05 1017.63 1018.00 1018.19 1018.49
1007.35 1007.05 1006.66 1005.99 1006.71 1007.52 1008.12 1009.30 1009.29 1008.94 1008.61 1007.15 1005.80 1006.10 1000.06 1000.87 1000.18 1000.77 1001.75 1003.06 1004.40 1005.53 1007.07 1008.19 1009.23 1010.29 1011.02 1011.86 1012.42 1013.04 1013.73 1014.31 1014.88 1015.39 1015.77 1016.02 1016.19 1016.43 1016.72 1016.97 1017.35 1017.57 1017.85 1018.19
1007.32 1007.35 1006.89 1006.88 1007.53 1008.54 1008.91 1009.18 1009.11 1009.01 1008.12 1005.71 1005.06 1005.65 1001.53 1000.05 1000.70 1001.38 1001.57 1003.04 1004.51 1005.66 1007.01 1008.01 1009.27 1010.18 1011.01 1011.76 1012.40 1013.15 1013.75 1014.22 1014.79 1015.34 1015.72 1016.11 1016.37 1016.57 1016.89 1016.99 1017.10 1017.28 1017.71 1018.02
1005.72 1005.98 1006.20 1006.35 1005.88 1006.68 1006.79 1006.86 1006.67 1006.53 1006.22 1004.98 1005.21 1003.57 1000.73 1001.02 1001.91 1002.71 1002.98 1003.86 1004.99 1006.08 1007.00 1008.16 1009.17 1010.12 1011.05 1011.77 1012.40 1013.17 1013.81 1014.31 1014.77 1015.31 1015.73 1016.01 1016.43 1016.61 1016.75 1016.88 1017.18 1017.37 1017.72 1018.14
1004.43 1004.02 1004.65 1004.92 1005.05 1005.78 1006.83 1006.02 1005.71 1005.99 1005.77 1004.70 1004.01 1002.61 1001.44 1001.61 1002.91 1003.78 1004.27 1004.60 1005.52 1006.43 1007.43 1008.28 1009.29 1010.31 1011.27 1012.05 1012.67 1013.27 1013.93 1014.48 1014.90 1015.35 1015.69 1015.90 1016.37 1016.55 1016.59 1016.90 1017.31 1017.71 1017.93 1018.27
1003.93 1004.11 1003.95 1004.95 1005.71 1006.03 1005.46 1004.54 1005.99 1005.36 1004.51 1003.92 1002.45 1002.17 1001.22 1001.92 1002.98 1004.25 1004.79 1004.96 1006.03 1006.77 1007.87 1008.91 1010.02 1010.95 1011.86 1012.50 1013.32 1013.98 1014.60 1015.12 1015.49 1015.50 1015.85 1016.10 1016.29 1016.51 1016.90 1017.27 1017.57 1017.84 1018.20 1018.45
1004.26 1003.98 1003.93 1004.63 1004.22 1003.81 1005.23 1004.33 1004.43 1004.08 1003.67 1002.38 1001.81 1001.31 1001.64 1002.16 1002.76 1003.88 1004.83 1005.23 1006.06 1007.28 1008.50 1009.59 1010.60 1011.62 1012.82 1013.68 1014.41 1014.78 1015.25 1015.66 1015.89 1016.05 1016.18 1016.28 1016.33 1016.58 1017.04 1017.26 1017.56 1017.77 1018.01 1018.26
1004.19 1004.02 1004.14 1004.40 1004.44 1004.13 1002.91 1002.76 1002.59 1002.38 1002.78 1002.41 1002.46 1001.76 1002.63 1003.41 1003.91 1004.29 1004.97 1005.64 1006.85 1008.03 1009.15 1010.24 1011.29 1012.56 1013.36 1014.16 1014.67 1015.14 1015.58 1016.00 1016.14 1016.32 1016.43 1016.36 1016.51 1016.72 1016.96 1017.02 1017.26 1017.63 1017.80 1017.92
1004.36 1003.93 1004.25 1004.75 1005.05 1004.36 1003.53 1003.08 1002.43 1002.21 1002.47 1002.01 1002.52 1002.13 1003.09 1004.06 1004.72 1005.00 1005.56 1006.47 1007.47 1008.64 1009.86 1011.02 1012.10 1012.98 1013.73 1014.36 1014.94 1015.46 1015.79 1016.07 1016.28 1016.48 1016.51 1016.44 1016.50 1016.59 1016.72 1016.79 1016.99 1017.35 1017.49 1017.57
1004.58 1003.73 1003.35 1003.42 1003.50 1003.10 1003.32 1002.60 1002.67 1002.45 1002.06 1001.48 1001.83 1002.01 1003.26 1004.31 1005.01 1005.64 1006.39 1007.11 1007.99 1009.32 1010.32 1011.34 1012.33 1013.04 1013.84 1014.59 1015.21 1015.48 1015.79 1016.10 1016.28 1016.45 1016.51 1016.44 1016.39 1016.48 1016.49 1016.58 1016.95 1017.11 1017.16 1017.23
1004.33 1003.39 1003.54 1003.89 1003.80 1003.64 1003.00 1002.67 1002.66 1002.33 1001.67 1001.84 1001.32 1002.57 1003.46 1004.52 1005.18 1005.99 1006.93 1007.72 1008.51 1009.59 1010.51 1011.22 1012.14 1012.94 1013.90 1014.73 1015.17 1015.48 1015.82 1016.18 1016.39 1016.39 1016.37 1016.29 1016.28 1016.42 1016.54 1016.68 1017.04 1016.90 1017.06 1016.78
1003.96 1003.56 1003.80 1003.84 1004.34 1004.42 1004.03 1003.43 1002.82 1002.47 1002.11 1002.26 1002.78 1003.13 1003.90 1005.21 1005.91 1006.66 1007.38 1007.99 1008.64 1009.50 1010.26 1011.26 1012.16 1012.95 1013.89 1014.62 1015.05 1015.53 1015.89 1016.29 1016.31 1016.32 1016.38 1016.32 1016.39 1016.45 1016.57 1016.58 1016.78 1016.77 1016.58 1016.62
1003.87 1003.62 1003.63 1003.84 1004.30 1004.31 1004.29 1003.10 1002.86 1002.67 1002.53 1002.29 1002.63 1003.28 1004.51 1005.61 1005.91 1006.67 1007.21 1007.77 1008.69 1009.41 1010.38 1011.26 1012.28 1013.14 1014.02 1014.70 1014.99 1015.43 1015.86 1015.99 1016.19 1016.27 1016.35 1016.25 1016.29 1016.26 1016.21 1016.20 1016.19 1016.24 1016.20 1016.24
1003.71 1003.52 1003.42 1003.91 1004.35 1004.09 1003.77 1004.26 1003.84 1003.21 1003.30 1003.57 1003.72 1004.29 1005.12 1005.51 1006.03 1006.73 1007.56 1007.91 1008.62 1009.51 1010.67 1011.66 1012.65 1013.55 1014.29 1014.79 1015.17 1015.30 1015.54 1015.72 1015.92 1016.19 1016.23 1016.30 1016.28 1016.23 1016.08 1015.96 1015.92 1015.82 1015.55 1015.50
1004.44 1003.96 1003.98 1003.96 1003.76 1003.36 1003.74 1004.67 1004.84 1004.64 1004.75 1005.15 1005.19 1005.23 1005.72 1006.65 1007.28 1007.46 1007.94 1008.47 1008.83 1009.96 1011.22 1012.27 1013.19 1013.89 1014.43 1014.97 1015.35 1015.46 1015.68 1015.82 1015.90 1016.25 1016.30 1016.43 1016.45 1016.27 1015.93 1015.86 1015.74 1015.56 1015.25 1015.02
1004.35 1003.89 1003.54 1003.62 1003.10 1003.47 1004.57 1004.87 1005.64 1005.55 1005.64 1005.91 1006.07 1006.32 1006.67 1007.47 1007.93 1007.82 1008.75 1009.38 1010.17 1011.29 1012.15 1012.83 1013.46 1014.08 1014.56 1015.26 1015.38 1015.48 1015.75 1016.01 1015.98 1016.26 1016.37 1016.36 1016.48 1016.34 1015.91 1015.66 1015.52 1015.32 1015.23 1014.82
1004.62 1004.42 1004.10 1003.92 1003.88 1004.50 1005.21 1005.84 1006.41 1006.67 1007.71 1007.07 1007.33 1007.61 1007.86 1007.88 1008.50 1008.76 1009.56 1010.36 1011.30 1012.11 1012.57 1013.15 1013.75 1014.13 1014.99 1015.46 1015.70 1015.79 1016.05 1016.24 1016.31 1016.40 1016.42 1016.39 1016.49 1016.20 1015.87 1015.56 1015.51 1015.32 1015.09 1014.76
1005.48 1004.99 1004.87 1004.92 1004.93 1005.84 1006.43 1006.86 1007.46 1007.67 1007.60 1007.88 1008.23 1008.81 1008.89 1008.60 1008.75 1009.56 1010.35 1011.15 1011.80 1012.35 1012.77 1013.17 1013.81 1014.31 1014.92 1015.51 1015.88 1016.07 1016.23 1016.40 1016.54 1016.65 1016.65 1016.70 1016.63 1016.25 1015.74 1015.75 1015.55 1015.19 1014.91 1014.58
1006.34 1006.69 1006.36 1006.39 1006.39 1006.73 1006.99 1007.39 1007.80 1008.14 1007.97 1008.01 1008.09 1008.44 1008.47 1008.61 1009.21 1009.95 1010.67 1011.42 1012.04 1012.57 1013.30 1013.82 1014.16 1014.60 1015.21 1015.79 1015.86 1016.08 1016.29 1016.60 1017.06 1017.29 1016.93 1016.52 1016.38 1016.18 1015.87 1015.53 1015.27 1014.96 1014.56 1014.34
1006.93 1007.13 1006.96 1006.68 1006.85 1006.96 1007.34 1007.66 1007.94 1008.10 1008.14 1008.09 1008.15 1008.26 1008.40 1008.63 1009.34 1009.88 1010.67 1011.40 1012.11 1012.93 1013.74 1014.33 1014.75 1015.07 1015.61 1015.96 1016.23 1016.33 1016.45 1016.86 1017.30 1017.23 1016.83 1016.30 1016.04 1016.05 1015.62 1015.24 1014.98 1014.84 1014.48 1014.28
1008.35 1008.02 1007.92 1007.50 1007.41 1007.35 1007.49 1007.82 1008.10 1008.16 1008.44 1008.42 1008.55 1008.69 1008.83 1009.01 1009.59 1010.17 1010.95 1011.81 1012.53 1013.20 1013.83 1014.48 1015.01 1015.38 1015.80 1016.38 1016.64 1016.62 1016.81 1017.19 1017.24 1016.93 1016.85 1016.28 1015.98 1015.84 1015.39 1015.01 1014.93 1014.77 1014.57 1014.57
1009.42 1009.58 1009.25 1008.81 1008.92 1008.92 1008.32 1008.61 1008.71 1008.53 1008.53 1008.76 1009.07 1009.32 1009.46 1009.68 1010.02 1010.62 1011.39 1012.14 1012.93 1013.57 1014.31 1014.95 1015.50 1015.68 1016.04 1016.25 1016.62 1017.18 1017.49 1017.40 1017.18 1016.72 1016.36 1016.12 1015.99 1015.71 1015.40 1015.02 1014.67 1014.46 1014.55 1014.49
Wind_Speed
14 10 21 28 25 20 21 20 21 19 15 14 20 22 21 17 13 15 17 18 17 17 12 9 8 6 7 9 12 13 14 14 10 9 8 7 6 6 5 3 3 4 3 4
7 22 30 20 20 23 23 22 27 18 4 7 15 23 20 21 20 21 19 18 19 16 13 11 9 8 7 8 10 13 14 14 11 8 7 4 6 4 4 4 4 5 4 4
24 26 21 22 20 22 24 24 22 20 6 11 13 24 22 24 24 22 22 19 20 20 17 14 11 9 9 10 11 12 13 13 11 9 6 4 3 2 4 5 5 5 5 5
18 30 22 24 27 25 24 24 21 17 10 13 8 16 18 19 27 25 21 20 18 18 16 15 14 12 11 10 10 11 11 12 10 9 8 9 6 6 5 2 3 3 5 6
15 19 23 18 30 26 20 13 13 17 16 12 16 8 17 16 22 21 19 19 17 15 16 17 15 13 11 10 10 10 11 10 9 8 7 6 6 4 3 3 5 6 5 5
16 7 17 22 18 19 2 3 3 1 4 10 19 13 28 19 12 17 17 16 16 18 17 15 13 12 11 10 10 9 10 9 8 7 7 6 6 6 5 5 5 5 4 4
9 7 2 5 10 5 12 10 5 6 7 8 11 15 25 8 6 8 12 17 16 16 17 16 15 13 12 11 10 8 9 9 8 8 7 7 6 6 7 6 5 5 4 5
16 11 14 11 11 12 25 20 9 10 8 8 5 13 13 1 3 3 1 11 16 18 15 15 14 12 11 10 10 9 9 8 8 8 8 7 7 5 5 5 5 4 4 3
10 13 11 21 13 18 8 15 6 3 1 1 7 7 17 9 6 6 5 16 17 16 15 14 13 11 10 9 8 8 8 7 7 7 6 7 7 7 5 4 4 4 5 3
9 15 15 9 5 2 7 13 6 5 6 7 9 7 13 8 10 10 12 17 16 15 14 12 11 10 8 7 6 5 3 2 2 4 5 6 6 5 3 2 5 4 2 3
3 6 5 10 11 18 8 7 6 2 4 5 3 5 1 1 9 14 13 15 16 14 12 11 10 9 7 5 3 3 3 3 3 4 5 5 5 4 3 5 5 5 4 6
7 3 3 8 5 4 14 7 14 8 8 5 3 8 1 2 3 10 15 14 12 11 10 9 9 8 6 5 4 3 3 2 2 3 5 5 5 5 6 6 6 5 6 6
4 4 5 0 1 0 6 7 12 2 2 12 8 6 1 1 2 3 13 12 11 12 11 9 8 7 6 5 4 2 2 1 0 2 3 5 6 6 6 6 5 6 6 7
4 4 6 6 1 3 9 15 13 11 7 8 10 3 2 3 6 7 10 11 12 10 10 9 8 6 5 4 3 2 1 1 2 1 3 4 5 6 5 5 5 6 6 6
5 5 4 2 1 4 2 12 16 16 19 11 11 14 1 4 5 9 7 10 12 12 11 9 8 7 5 4 3 2 0 1 2 2 3 3 3 4 3 4 5 5 6 7
4 2 4 3 2 4 5 9 16 20 19 18 2 4 2 4 5 9 10 10 12 11 11 9 8 7 5 4 2 1 0 2 1 2 3 2 3 2 4 5 5 6 5 6
4 4 4 3 1 3 7 11 13 13 13 16 16 7 4 5 5 7 9 10 10 9 9 9 8 6 5 4 3 2 1 1 2 1 2 1 2 3 3 4 5 5 6 6
2 3 1 3 3 6 3 2 2 12 1 8 6 2 0 3 3 2 2 11 9 9 9 8 7 7 5 4 2 0 1 1 1 2 3 3 3 4 4 4 5 5 6 7
3 3 3 4 5 3 3 3 3 1 2 4 6 4 3 3 2 5 3 2 7 8 8 7 6 6 5 4 1 1 0 1 1 2 3 3 4 5 4 5 5 5 5 6
1 3 2 3 4 2 4 5 4 3 1 6 3 7 5 8 7 4 7 7 10 9 8 8 7 6 5 2 0 2 2 2 2 3 4 4 5 5 5 5 5 5 5 6
2 2 2 0 3 4 4 4 4 1 4 3 3 6 7 5 3 8 10 10 9 8 9 8 6 5 4 3 1 1 1 1 3 4 5 5 5 5 6 5 5 5 5 5
4 3 2 0 2 3 1 1 4 3 1 2 2 4 5 5 8 8 9 9 9 9 8 7 7 6 5 3 1 1 1 3 4 4 4 5 5 5 4 4 5 4 4 5
1 4 4 5 4 1 1 1 1 2 3 3 3 4 5 7 6 7 8 8 7 8 6 5 5 6 5 3 1 2 2 2 4 4 4 4 4 4 4 4 5 5 3 4
3 3 3 3 3 5 5 1 3 2 3 3 3 3 4 5 8 7 8 8 7 6 5 4 4 3 3 2 2 0 1 2 2 4 4 3 3 4 3 3 3 3 3 3
4 6 5 2 3 2 6 8 9 3 3 2 1 1 4 4 6 7 7 6 6 6 5 4 3 3 2 2 3 1 1 0 3 3 5 4 3 3 4 3 4 3 4 3
6 5 4 3 6 5 5 11 12 10 7 3 2 1 0 2 6 6 6 5 6 6 5 4 3 2 3 2 2 3 3 3 2 4 3 3 4 4 4 4 5 6 9 9
Wind_Direction
193 208 216 220 219 230 242 244 239 244 243 211 234 244 243 228 216 228 218 213 212 214 201 175 189 194 203 212 202 195 183 180 174 174 178 183 197 196 201 212 211 235 233 242
167 221 228 234 238 232 240 248 253 260 183 225 260 255 249 248 230 222 224 217 215 208 192 192 186 179 188 188 193 182 182 176 181 180 183 191 197 200 219 188 209 224 224 232
205 224 218 234 230 238 229 233 239 248 184 241 279 273 252 244 242 237 221 223 215 211 197 190 181 179 169 174 177 178 176 175 181 178 161 161 139 183 201 214 228 216 230 230
226 245 237 219 224 219 231 226 237 237 243 246 181 277 257 244 227 226 227 220 224 207 194 186 175 168 169 158 158 166 168 174 174 171 182 192 206 218 214 238 223 224 224 248
208 234 221 216 223 209 236 232 238 234 234 247 238 258 257 236 241 220 222 218 216 198 191 184 173 166 158 153 157 160 164 169 169 179 196 201 221 236 253 231 247 246 244 237
247 290 219 208 223 220 115 88 75 150 205 230 221 208 270 242 235 227 212 206 197 191 185 177 167 160 159 160 161 164 167 173 173 185 196 216 228 241 240 233 242 244 242 235
192 206 205 220 192 133 160 154 200 203 206 230 191 204 240 262 240 261 217 181 181 171 179 171 167 169 167 168 170 170 179 182 185 195 205 211 229 236 246 249 253 254 246 240
217 207 167 186 193 179 191 193 205 216 200 216 175 207 240 17 126 34 353 165 164 173 171 169 170 169 167 171 172 176 184 192 191 202 213 213 221 228 232 240 253 257 252 248
228 234 180 177 187 167 161 211 223 134 210 196 189 259 283 185 185 185 171 168 174 173 169 164 159 163 161 170 173 182 189 198 197 210 214 214 215 224 242 247 258 264 267 244
246 255 197 163 138 297 204 158 173 211 184 223 209 244 240 185 203 186 182 181 174 166 162 156 159 157 151 150 147 158 177 92 223 215 221 222 221 218 217 217 239 257 279 277
278 255 116 142 204 176 171 168 202 213 223 217 239 231 341 299 199 184 181 174 168 159 156 154 148 136 103 105 120 135 160 188 210 221 237 233 234 217 194 226 237 235 236 244
201 329 173 231 359 326 237 199 193 202 192 247 345 257 38 12 357 163 166 160 150 148 147 144 133 133 137 137 131 134 139 193 216 239 243 240 239 229 226 225 227 230 240 239
155 203 164 75 288 291 218 196 217 186 77 200 200 250 98 175 154 139 155 147 141 141 143 133 142 151 150 143 137 141 140 153 303 263 248 241 237 232 232 229 222 225 230 237
173 229 255 232 335 140 205 202 204 205 205 189 219 215 160 188 165 161 149 148 144 152 153 155 153 149 144 140 145 125 141 48 280 267 273 259 244 240 238 239 235 234 226 227
230 248 210 105 30 309 295 209 197 212 220 208 242 229 117 127 182 172 148 144 151 163 165 163 160 150 149 151 146 119 10 302 302 272 270 273 272 260 257 258 254 241 246 234
199 217 156 213 175 236 241 231 206 212 228 238 94 282 70 86 107 152 176 172 176 179 173 166 155 144 155 158 147 178 223 269 264 291 284 292 276 257 247 244 242 250 238 238
216 184 171 162 172 203 256 234 200 218 231 231 230 222 158 176 146 185 189 180 187 174 169 165 166 160 150 159 163 181 227 252 269 264 279 299 305 277 262 250 242 237 239 247
276 211 216 93 201 231 39 305 344 227 107 269 268 115 295 350 35 113 165 182 165 149 157 150 147 141 142 138 132 216 243 250 277 296 302 307 301 292 291 283 273 267 259 254
316 177 160 216 210 348 135 54 48 170 133 356 289 239 180 75 54 267 224 299 154 144 139 135 122 121 127 112 132 182 223 268 281 295 306 310 301 292 294 289 283 279 271 267
47 36 317 197 241 214 16 25 46 299 352 352 359 304 189 158 210 126 143 135 111 115 126 129 125 123 111 113 49 217 205 247 283 326 319 310 299 298 293 285 285 289 282 277
13 34 10 286 357 78 20 49 42 96 26 359 335 292 266 213 4 108 123 113 114 125 123 118 118 109 111 123 123 178 208 269 336 325 317 312 304 302 295 303 305 297 294 293
336 330 54 330 227 108 96 172 318 354 142 272 226 226 182 96 116 123 118 122 126 125 128 131 136 134 131 104 212 218 227 8 342 329 310 312 307 304 316 311 293 290 282 283
35 20 7 358 32 19 254 353 31 299 321 343 325 166 140 123 134 139 131 131 133 137 137 139 133 136 138 141 140 203 100 5 336 307 286 279 305 300 301 295 303 300 287 293
68 14 352 291 41 4 15 196 243 252 310 341 350 159 165 126 149 141 142 142 142 134 137 132 138 152 167 165 180 184 83 14 304 292 294 295 288 311 282 304 296 299 301 307
2 315 339 289 30 359 76 27 3 358 245 285 45 264 209 158 163 155 147 148 145 145 132 141 157 164 180 198 234 196 205 220 283 283 284 291 288 295 310 301 297 293 286 278
354 9 352 359 359 325 347 0 360 347 342 297 224 171 96 209 165 149 146 145 145 141 139 149 171 181 194 203 264 244 217 216 262 282 273 318 314 317 311 313 311 273 257 278